pnunews.com alexa rank chart, pnunews.com alexa rank daily changes

pnunews.com alexa rank chart, pnunews.com alexa rank daily changes

pnunews.com
Actual rank:
73 777

RANK HISTORY

Date Rank Diff
2017/05/21 73 777 +1 283
2017/05/20 72 494 -1 338
2017/05/19 73 832 -1 080
2017/05/18 74 912 +1 009
2017/05/17 73 903 -1 590
2017/05/16 75 493 -230
2017/05/15 75 723 -1 573
2017/05/14 77 296 +701
2017/05/13 76 595 -478
2017/05/12 77 073 -1 365
2017/05/11 78 438 -164
2017/05/10 78 602 -684
2017/05/09 79 286 -999
2017/05/08 80 285 -1 188
2017/05/07 81 473 +151
2017/05/06 81 322 -122
2017/05/05 81 444 -2 611
2017/05/04 84 055 +914
2017/05/03 83 141 -1 356
2017/05/02 84 497 -1 956
2017/05/01 86 453 -3 108
2017/04/30 89 561 -1 277
2017/04/29 90 838 -2 548
2017/04/28 93 386 -1 437
2017/04/27 94 823 -1 565
2017/04/26 96 388 -2 702
2017/04/25 99 090 -3 525
2017/04/24 102 615 -3 694
2017/04/23 106 309 -1 549
2017/04/22 107 858 -1 820
2017/04/21 109 678 -1 756
2017/04/20 111 434 +834
2017/04/19 110 600 -855
2017/04/18 111 455 -2 677
2017/04/17 114 132 -3 011
2017/04/16 117 143 -875
2017/04/15 118 018 -55
2017/04/14 118 073 -1 162
2017/04/13 119 235 -2 210
2017/04/12 121 445 +5 105
2017/04/11 116 340 -3 235
2017/04/10 119 575 -3 146
2017/04/09 122 721 +692
2017/04/08 122 029 -148
2017/04/07 122 177 -1 225
2017/04/06 123 402 -805
2017/04/05 124 207 +4 056
2017/04/04 120 151 +136
2017/04/03 120 015 +2 894
2017/04/02 117 121 +3 023
2017/04/01 114 098 +660
2017/03/31 113 438 -1 166
2017/03/30 114 604 -122
2017/03/29 114 726 -751
2017/03/28 115 477 +2 450
2017/03/27 113 027 +2 789
2017/03/26 110 238 +909
2017/03/25 109 329 +4 793
2017/03/24 104 536 +1 941
2017/03/23 102 595 +4 312
2017/03/22 98 283

WIDGET FOR YOUR SITE

DOMAINS WITH THE NEAREST RANK

Domain Rank
ffbb.com 73 772
bitstarz.io 73 773
bpm-power.com 73 774
sixsistersstuff.com 73 775
05133.com 73 776
pnunews.com 73 777
marocplus.info 73 778
wilderssecurity.com 73 779
nebo.edu 73 780
cannabiscafe.net 73 781
stepfeed.com 73 782

DOMAINS WITH THE NEAREST RANK BY TLD .com

Domain Rank
angelsx.com 73 770
ffbb.com 73 772
bpm-power.com 73 774
sixsistersstuff.com 73 775
05133.com 73 776
pnunews.com 73 777
wilderssecurity.com 73 779
stepfeed.com 73 782
seri-ar.com 73 783
bdbiosciences.com 73 785
contentcapitalpresent.com 73 786